Home > Weather > PyeongChang > Past weeks

Flag for South Korea Weather for the Past 2 Weeks in PyeongChang, South Korea

Now
52 °F

Mostly cloudy.


Feels Like: 52 °F
Forecast: 17 / 56 °F
Wind: 2 mph from Northeast

Location: Chongju Ab

Current Time: Feb 13, 2016 at 12:39:02 PM

Latest Report: Feb 13, 2016 at 11:00 AM


Visibility: 4 mi

Pressure: 29.86 "Hg

Humidity: 100%

Dew point: 52 °F

Location of PyeongChangLocation

Historic Weather in PyeongChang — Graph

°F

PyeongChang Temperature Yesterday

Maximum temperature yesterday: 52 °F (at 12:02 AM)
Minimum temperature yesterday: 45 °F (at 8:00 AM)
Average temperature yesterday: 48 °F

High & Low Weather Summary for the Past Weeks

 TemperatureHumidityPressure
High57 °F (Feb 11, 3:00 PM)100% (Feb 12, 9:00 AM)30.45 "Hg (Feb 12, 9:00 AM)
Low7 °F (Feb 2, 7:00 AM)22% (Feb 7, 3:00 PM)29.86 "Hg (Feb 13, 11:00 AM)
Average31 °F62%30.24 "Hg
* Reported Jan 29 11:00 AM — Feb 13 11:00 AM, PyeongChang, Weather by CustomWeather, © 2016

Note: Actual official high and low records may vary slightly from our data, if they occured in-between our weather recording intervals... More about our weather records

Advertising

PyeongChang Weather History for the Previous 24 Hours

 ConditionsComfort  
Time TempWeatherWind HumidityBarometerVisibility
11:00 AM
Sat, Feb 13
52 °FMostly cloudy.2 mph100%29.86 "Hg4 mi
10:00 AM50 °FFog.2 mph100%29.89 "Hg1 mi
9:00 AM46 °FDrizzle. Fog.1 mph100%29.89 "Hg1 mi
8:00 AM48 °FDrizzle. Fog.1 mph94%29.89 "Hg1 mi
7:00 AM45 °FDrizzle. Fog.1 mph100%29.89 "Hg0 mi
6:00 AM45 °FDrizzle. Fog.3 mph100%29.89 "Hg0 mi
5:00 AM48 °FLight rain. Fog.1 mph94%29.92 "Hg0 mi
4:00 AM48 °FLight rain. Fog.1 mph94%29.92 "Hg0 mi
3:00 AM46 °FLight rain. Fog.2 mph100%29.95 "Hg0 mi
2:00 AM48 °FLight rain. Fog.1 mph100%29.95 "Hg0 mi
1:00 AM46 °FLight rain. Fog.1 mph93%29.98 "Hg0 mi
12:00 AM46 °FLight rain. Fog.1 mph100%29.98 "Hg0 mi
11:00 PM
Fri, Feb 12
48 °FLight rain. Fog.1 mph94%29.98 "Hg0 mi
10:00 PM46 °FLight rain. Fog.1 mph100%30.01 "Hg0 mi
9:00 PM48 °FLight rain. Fog.1 mph100%30.01 "Hg0 mi
8:00 PM48 °FLight rain. Fog.1 mph100%30.01 "Hg0 mi
7:00 PM48 °FLight rain. Fog.1 mph100%30.01 "Hg0 mi
6:00 PM48 °FLight rain. Fog.1 mph100%30.01 "Hg0 mi
5:00 PM50 °FLight rain. Fog.1 mph100%30.01 "Hg0 mi
4:45 PM50 °FLight rain. Fog.1 mph100%29.98 "Hg0 mi
4:00 PM50 °FLight rain. Fog.1 mph100%30.01 "Hg1 mi
3:00 PM50 °FLight rain. Fog.1 mph100%30.01 "Hg1 mi
2:00 PM50 °FLight rain. Fog.2 mph94%30.01 "Hg1 mi
1:00 PM48 °FLight rain. Fog.1 mph100%30.04 "Hg1 mi
12:00 PM48 °FLight rain. Fog.3 mph94%30.07 "Hg1 mi
Weather by CustomWeather, © 2016

See weather overviewHow to use our weather pages